Regional Weather Roundup
Issued by NWS

Home | Current Version | Previous Version | Graphics & Text | Print | Product List | Glossary On
Versions: 1 2 3 4 5 6 7 8 9 10 11 12 13 14 15 16 17 18 19 20 21 22 23 24 25 26 27 28 29 30 31 32 33 34 35 36 37 38 39 40 41 42 43 44 45 46 47 48 49 50
000
ASUS43 KBIS 070210
RWRND

NORTH DAKOTA REGIONAL WEATHER ROUNDUP
NATIONAL WEATHER SERVICE BISMARCK ND
800 PM CST TUE DEC 06 2016

NOTE: "FAIR" INDICATES FEW OR NO CLOUDS BELOW 12,000 FEET WITH NO
SIGNIFICANT WEATHER AND/OR OBSTRUCTIONS TO VISIBILITY.


NDZ001>003-009>011-017-070300-
NORTHWEST NORTH DAKOTA

CITY           SKY/WX    TMP DP  RH WIND       PRES   REMARKS
WILLISTON      CLOUDY     4  -4  69 NW23G29   30.13R WCI -18
MINOT          LGT SNOW   5   0  79 W33G41    29.95R WCI -20
MINOT AFB      LGT SNOW   3   0  85 NW32G41   29.94R VSB 3/4 WCI -22
$$

NDZ018>021-031>035-040>046-070300-
SOUTHWEST NORTH DAKOTA

CITY           SKY/WX    TMP DP  RH WIND       PRES   REMARKS
BISMARCK       CLOUDY     6   2  83 W23G31    30.02R WCI -15
DICKINSON      CLOUDY     1  -5  75 NW25G33   30.03R HAZE    WCI -23
GARRISON         N/A      4  -1  80 NW29G38   29.97R WCI -20
HETTINGER ARPT PTCLDY     1  -4  79 W21       30.05R WCI -21
$$

NDZ004>008-012>016-024-026-027-054-070300-
NORTHEAST NORTH DAKOTA

CITY           SKY/WX    TMP DP  RH WIND       PRES   REMARKS
GRAND FORKS    LGT SNOW  19  14  81 NW31G39   29.63R VSB 1   WCI   0
GRND FRKS AFB  CLOUDY    18  12  79 NW25G41   29.64S BLWGSNOWWCI  -1
DEVILS LAKE    HVY SNOW  11   8  88 W37G47    29.73S VSB 1/4 WCI -13
$$

NDZ022-023-025-028>030-036>039-047>053-070300-
SOUTHEAST NORTH DAKOTA

CITY           SKY/WX    TMP DP  RH WIND       PRES   REMARKS
FARGO          CLOUDY    16   9  74 W32G39    29.70R WCI  -5
JAMESTOWN      SNOW      11   8  88 NW26G49   29.82R VSB 1/2 WCI -10
$$





USA.gov is the U.S. government's official web portal to all federal, state and local government web resources and services.